Printer-friendly version

IAU Minor Planet Center

Minor Planet Center

MPEC 2007-F34 : 2007 FD1

The following Minor Planet Electronic Circular may be linked-to from your own Web pages, but must not otherwise be redistributed electronically.


Read MPEC 2007-F33 Read MPEC 2007-F35


M.P.E.C. 2007-F34                                Issued 2007 Mar. 19, 11:36 UT

     The Minor Planet Electronic Circulars contain information on unusual
         minor planets and routine data on comets.  They are published
   on behalf of Commission 20 of the International Astronomical Union by the
          Minor Planet Center, Smithsonian Astrophysical Observatory,
                          Cambridge, MA 02138, U.S.A.

             Prepared using the Tamkin Foundation Computer Network

                              MPC@CFA.HARVARD.EDU
          URL http://cfa-www.harvard.edu/iau/mpc.html  ISSN 1523-6714

                                   2007 FD1

Observations:
     K07F01D* C2007 03 16.47335 13 43 06.30 -16 51 36.3          20.5 V EF034691
     K07F01D  C2007 03 16.49100 13 43 02.34 -16 51 08.8          20.8 V EF034691
     K07F01D  C2007 03 16.50865 13 42 58.38 -16 50 42.2          20.4 V EF034691
     K07F01D tC2007 03 17.42992 13 39 35.94 -16 27 11.9                 EF034291
     K07F01D tC2007 03 17.43381 13 39 35.12 -16 27 06.5                 EF034291
     K07F01D tC2007 03 17.43770 13 39 34.25 -16 27 00.4                 EF034291
     K07F01D  C2007 03 18.33836 13 36 17.53 -16 03 50.5          20.4 V EF034691
     K07F01D  C2007 03 18.35601 13 36 13.60 -16 03 22.8          20.2 V EF034691
     K07F01D  C2007 03 18.37366 13 36 09.68 -16 02 55.7          20.5 V EF034691

Observer details:
291 LPL/Spacewatch II.  Observer J. V. Scotti.  1.8-m f/2.7 reflector + CCD.
691 Steward Observatory, Kitt Peak.  Observer J. V. Scotti.  0.9-m f/3
    reflector + CCD.

Orbital elements:
2007 FD1                                                 Earth MOID = 0.1240 AU
Epoch 2007 Apr. 10.0 TT = JDT 2454200.5                 MPC
M  23.21994              (2000.0)            P               Q
n   0.22024326     Peri.  190.69235     +0.89099721     -0.42956121
a   2.7156114      Node   197.21011     +0.44453231     +0.89121875
e   0.9787801      Incl.   29.78444     +0.09227670     -0.14562388
P   4.48           H   18.4           G   0.15
Residuals in seconds of arc
070316 691  0.1+  0.4-    070317 291  0.4-  0.4+    070318 691  0.2+  0.4-
070316 691  0.1-  0.1+    070317 291  0.3+  0.1-    070318 691  0.1-  0.0
070316 691  0.3-  0.3-    070317 291  0.2+  0.0     070318 691  0.3-  0.2-

Ephemeris:
2007 FD1                 a,e,i = 2.72, 0.98, 30                  q = 0.0576
Date    TT    R. A. (2000) Decl.     Delta      r     Elong.  Phase     V
2007 03 11    14 03.36   -19 05.2    0.917    1.761   134.3    23.8    20.6
2007 03 21    13 26.72   -14 54.4    0.959    1.904   153.8    13.4    20.5
2007 03 31    12 53.71   -10 35.8    1.045    2.039   172.0     3.9    20.4
2007 04 10    12 27.17   -06 46.9    1.176    2.167   168.7     5.2    20.9
2007 04 20    12 07.75   -03 46.7    1.345    2.290   153.7    11.2    21.5

Timothy B. Spahr             (C) Copyright 2007 MPC           M.P.E.C. 2007-F34

Read MPEC 2007-F33 Read MPEC 2007-F35


Our Web policy. Index to the CBAT/MPC/ICQ pages.


Valid HTML 4.01!